Date,TemperatureHighF,TemperatureAvgF,TemperatureLowF,DewpointHighF,DewpointAvgF,DewpointLowF,HumidityHigh,HumidityAvg,HumidityLow,PressureMaxIn,PressureMinIn,WindSpeedMaxMPH,WindSpeedAvgMPH,GustSpeedMaxMPH,PrecipitationSumIn
2013-2-1,24.6,21.2,19.0,16.5,13.1,10.0,81,71,57,30.20,29.73,8,5,20,0.00
2013-2-2,21.5,18.8,14.8,16.1,13.2,8.3,85,79,67,30.20,29.98,6,3,17,0.00
2013-2-3,28.1,18.6,7.9,18.3,12.5,3.7,88,77,56,29.99,29.81,5,1,16,0.09
2013-2-4,22.2,19.2,15.0,14.7,11.5,8.0,80,72,60,30.00,29.89,7,3,19,0.00
2013-2-5,29.9,23.6,16.4,23.2,16.2,11.7,85,73,57,29.96,29.84,5,1,17,0.02
2013-2-6,29.4,26.0,19.7,24.2,17.3,12.8,83,70,54,30.36,29.88,7,3,18,0.00
2013-2-7,33.8,26.5,17.7,22.3,17.7,12.6,81,69,57,30.38,30.05,5,2,16,0.01
2013-2-8,34.4,28.3,18.6,31.5,23.8,14.6,89,83,73,30.14,29.75,6,2,16,0.08
2013-2-9,22.6,18.1,9.9,17.3,13.7,6.0,86,83,78,30.43,30.14,3,1,9,0.00
2013-2-10,40.5,25.0,6.9,29.9,17.8,2.6,86,75,56,30.42,29.92,4,1,12,0.18
2013-2-11,50.8,39.5,33.4,41.6,32.3,25.5,92,76,55,29.92,29.55,14,6,33,0.58
2013-2-12,34.4,33.3,31.8,30.1,27.1,23.7,89,78,71,29.98,29.74,10,6,24,0.03
2013-2-13,40.0,32.0,21.9,26.0,23.4,18.2,86,71,54,29.91,29.73,4,1,11,0.00
2013-2-14,41.0,33.7,21.1,34.5,27.7,17.5,89,79,59,29.90,29.76,8,3,25,0.18
2013-2-15,38.3,32.5,23.0,32.0,23.9,14.9,81,70,60,30.08,29.77,10,6,27,0.00
2013-2-16,31.6,25.7,19.9,20.4,15.4,9.5,80,65,49,30.07,29.91,4,1,11,0.00
2013-2-17,22.3,17.8,14.2,17.9,10.1,4.9,84,72,58,30.24,29.91,6,3,19,0.00
2013-2-18,35.9,24.6,9.9,22.3,12.5,5.0,83,61,38,30.29,29.86,4,1,11,0.00
2013-2-19,43.5,34.7,24.7,37.2,27.1,18.5,88,74,58,29.86,29.53,12,6,28,0.41
2013-2-20,25.1,22.3,20.5,19.2,13.8,10.9,80,69,58,30.12,29.76,10,7,26,0.00
2013-2-21,22.9,22.3,21.1,16.2,15.4,12.8,76,75,70,30.41,30.10,6,1,16,0.00
2013-2-22,36.0,30.1,22.1,30.6,23.4,15.8,85,76,59,30.40,29.98,5,2,14,0.05
2013-2-23,39.9,34.6,31.5,31.7,28.4,24.6,81,78,71,29.98,29.87,5,3,15,0.00
2013-2-24,33.3,31.5,29.6,26.8,25.0,22.6,84,77,70,30.09,29.85,6,3,14,0.02
2013-2-25,36.6,31.6,23.5,29.0,25.5,19.7,87,78,69,30.23,30.09,4,1,9,0.00
2013-2-26,45.0,35.6,24.5,33.2,26.7,21.5,89,71,49,30.22,29.69,7,3,25,0.93
2013-2-27,37.1,35.5,34.1,34.4,32.5,31.5,91,89,85,29.70,29.56,7,2,21,0.55
2013-2-28,36.1,34.4,32.8,32.7,31.6,29.9,91,89,85,29.76,29.53,4,2,13,0.29